Location: Great Malvern
(52.1167°N, 2.3167°W)
Time: 18:15:59
(UTC+00:00)

Cosmos 1300 Rocket - Pass Details

Date: 18 September 2020
Orbit: 602 x 626 km, 82.5° (Epoch: 21 October)

Event Time Altitude Azimuth Distance (km) Brightness Sun altitude
Rises 19:54:34 0° 189° (S) 2,880 6.8 -15.5°
Reaches altitude 10° 19:56:47 10° 189° (S) 1,983 6.0 -15.8°
Maximum altitude 20:01:11 89° 276° (W) 631 3.5 -16.4°
Drops below altitude 10° 20:05:39 10° 11° (N) 2,011 6.4 -17.0°
Sets 20:07:54 0° 11° (NNE) 2,925 7.2 -17.3°
